Погода в Константине

Алжир     36°21′17″N   6°37′20″E
темп.,
°C
ветер,
м/с
пор.,
м/с
влажн.,
%
обл.,
%
осадки,
мм/ч
давл.,
гПа
погр.,
м
21 июня, пн
пн2101:00+22ю115856 0.0 101421
04:00+24в224113 0.0 101127
07:00+26св11352 0.0 101182
10:00+31с45275 0.0 1011935
13:00+35ссв271992 0.0 10092092
16:00+33с56240 0.0 10091363
19:00+25ссв66350 0.0 1012495
22:00+21ссв34380 0.0 1014198
22 июня, вт
вт2201:00+20с22380 0.0 101439
04:00+18в11400 0.0 101311
07:00+21ссв11340 0.0 1013121
10:00+26св22270 0.0 1013634
13:00+32ссз22190 0.0 10111220
16:00+37з412120 0.0 10093336
19:00+24ссв564364 0.0 1012352
22:00+20с45560 0.0 1015320
23 июня, ср
ср2301:00+19с236235 0.0 1015241
04:00+17ююв116810 0.0 101560
07:00+19св236095 0.0 1015197
10:00+24с33419 0.0 1014543
13:00+30ссз42295 0.0 10141017
16:00+31ссв64303 0.0 1013810
19:00+26ссв544968 0.0 1015495
22:00+20ссв3466100 0.0 1018285
24 июня, чт
чт2401:00+20ююв1364100 0.0 1018290
04:00+20вюв2263100 0.1 1017141
07:00+20с236193 0.1 1017181
10:00+27ссз11395 0.0 1017456
13:00+36с3618100 0.0 10141739
16:00+29с8836100 0.0 10161177
19:00+26ссз71145100 0.1 1018644
22:00+25ююв2349100 0.2 1020110
25 июня, пт
пт2501:00+26юз4840100 0.2 1018156
04:00+26ююв3339100 0.0 101642
07:00+27ююв4534100 0.0 101574
10:00+34ююв571893 0.0 1014860
13:00+37сз461398 0.0 10122575
16:00+35в761986 0.0 10131087
19:00+31св233292 0.0 1014161
22:00+27з2246100 0.0 101730